[[{"header":{"parameterUnit":"m.s-1","parameterCategory":1,"la1":30.2991,"la2":30.254,"lo1":-89.0895,"lo2":-89.0444,"dy":0.0017,"dx":0.0017,"nx":28,"ny":28,"refTime":"2026-02-15T09:00:00:Z","depth":0,"parameterNumber":2,"parameterNumberName":"U-component_of_WINDS"},"data":[0,0,0,0,0,0,0,0,0,0,0,0,0,0,0,0,0,0,0,0,0,0,0,0,0,0,0,0,0,0,0,0,0,0,0,0,0,0,0,0,0,0,0,0,0,0,0,0,0,0,0,0,0,0,0,0,0,0,0.8868,0.8868,0,0.8862,0.8862,0.8862,0.8843,0.8843,0.8842,0.8842,0.8835,0.8836,0.8836,0,0,0,0,0,0,0,0,0,0,0,0,0,0.8864,0.8865,0.8868,0.8868,0.8868,0.8862,0.8862,0.8862,0.8843,0.8843,0.8842,0.8842,0.8835,0.8836,0.8836,0,0,0,0,0,0,0,0,0,0,0,0,0,0.8863,0.8865,0.8868,0.8858,0.8857,0.8862,0.8862,0.8862,0.8843,0.8843,0.8842,0.8842,0.8835,0.8836,0.8836,0.885,0,0,0.8837,0.8837,0,0,0,0,0,0,0,0,0.8863,0.8863,0.886,0.8859,0.8858,0.8853,0.8858,0.8858,0.8844,0.8849,0.8842,0.8841,0.8842,0.8841,0.8842,0.885,0.885,0.8837,0.8837,0.8837,0.8837,0,0,0,0,0,0,0,0.8863,0.8863,0.8866,0.886,0.8859,0.8854,0.8853,0.8858,0.8849,0.8848,0.8847,0.8846,0.8841,0.8841,0.8841,0.885,0.8837,0.8837,0.8837,0.8837,0.887,0.8871,0,0,0,0,0,0,0.8865,0.8864,0.8866,0.8866,0.8859,0.8855,0.8854,0.8855,0.8849,0.8847,0.8847,0.8845,0.8841,0.8841,0.8841,0.8858,0.8837,0.8837,0.8838,0.887,0.887,0.8871,0,0,0,0,0,0,0.8865,0.8865,0.8866,0.8864,0.8864,0.8855,0.8857,0.8855,0.8856,0.8848,0.8846,0.8849,0.8841,0.8841,0.8848,0.8857,0.8838,0.8838,0.8869,0.887,0.8871,0.8892,0,0,0,0,0,0,0.8865,0.8865,0.887,0.8865,0.8864,0.8874,0.8858,0.8856,0.8856,0.8854,0.8849,0.8848,0.884,0.8848,0.8849,0.8857,0.8838,0.8868,0.8869,0.8871,0.889,0.8893,0.8896,0,0,0,0,0,0.8865,0.8876,0.8871,0.8871,0.8871,0.8874,0.8874,0.8865,0.8857,0.8862,0.8857,0.8848,0.8856,0.8849,0.8849,0.8859,0.8867,0.8869,0.887,0.8889,0.8893,0.8896,0,0,0,0,0,0,0.8883,0.8875,0.8869,0.8879,0.8878,0.8871,0.8877,0.8869,0.887,0.8868,0.8857,0.8856,0.8866,0.8863,0.8855,0.8873,0.886,0.8862,0.8874,0.8878,0.888,0.8881,0.8838,0,0,0,0,0,0.8888,0.8892,0.8885,0.8894,0.8894,0.8886,0.8887,0.8881,0.8879,0.8878,0.8873,0.8872,0.8874,0.8876,0.8877,0.889,0.8889,0.8896,0.8899,0.8902,0.8903,0.891,0.8914,0.8876,0.8876,0.8876,0,0,0.8899,0.8895,0.8898,0.8898,0.8896,0.89,0.8885,0.889,0.8893,0.8878,0.8885,0.8882,0.888,0.889,0.8894,0.8888,0.8914,0.8904,0.8906,0.8906,0.8912,0.8916,0.8919,0.8877,0.8877,0.8877,0,0,0.8921,0.8918,0.8926,0.8925,0.8922,0.8917,0.8919,0.8914,0.8911,0.8918,0.8908,0.8911,0.8915,0.8914,0.8914,0.8937,0.8928,0.8938,0.8953,0.896,0.8963,0.8966,0.8974,0.8977,0.894,0.894,0.894,0,0.8934,0.894,0.8931,0.8937,0.8938,0.8925,0.8933,0.8932,0.893,0.8931,0.8924,0.893,0.8927,0.8937,0.8943,0.8943,0.8946,0.8938,0.8963,0.8966,0.8968,0.8976,0.8979,0.8941,0.8941,0.8941,0.8941,0,0.8957,0.8962,0.8968,0.8967,0.8969,0.8976,0.8968,0.8971,0.8964,0.896,0.8968,0.8965,0.8966,0.8968,0.8962,0.8977,0.8974,0.8965,0.8953,0.8973,0.898,0.8983,0.8943,0.8942,0.8942,0.8942,0,0,0.8989,0.8984,0.8987,0.8987,0.8983,0.8986,0.8993,0.8995,0.8997,0.8997,0.9002,0.9007,0.9,0.9,0.8993,0.8999,0.9018,0.899,0.899,0.8996,0.9036,0.9043,0.9046,0.9013,0.9014,0.9014,0.9037,0,0.901,0.9021,0.9014,0.9026,0.9031,0.9019,0.9025,0.9024,0.9021,0.9024,0.902,0.9024,0.9013,0.9013,0.9019,0.9015,0.9026,0.9013,0.9018,0.9019,0.9019,0.905,0.9056,0.9078,0.9039,0.904,0.904,0,0.9035,0.9037,0.905,0.9046,0.9048,0.9053,0.9055,0.9058,0.9057,0.9054,0.9055,0.9047,0.9054,0.9042,0.9052,0.9043,0.9045,0.9043,0.9044,0.9044,0.903,0.9051,0.9084,0.9088,0.9045,0.9044,0.9044,0,0.9058,0.9063,0.9071,0.9071,0.9068,0.9072,0.9071,0.9069,0.9071,0.9072,0.9073,0.9075,0.9076,0.9078,0.9072,0.9063,0.9082,0.907,0.908,0.908,0.9084,0.9084,0.9119,0.9086,0.9086,0.9086,0.9086,0,0.9082,0.909,0.9081,0.9086,0.9096,0.9088,0.9097,0.9095,0.9094,0.9099,0.9089,0.9094,0.9085,0.9089,0.9084,0.9093,0.9094,0.9092,0.909,0.9093,0.9093,0.9093,0.9092,0.9087,0.9086,0.9086,0.9086,0,0.9108,0.9102,0.9111,0.9107,0.9107,0.9114,0.9111,0.9116,0.9112,0.9118,0.9119,0.9114,0.9118,0.9112,0.9116,0.9112,0.9125,0.9121,0.9125,0.9124,0.9135,0.9134,0.9171,0.9176,0.914,0.914,0.9141,0,0.9123,0.9129,0.9127,0.913,0.9129,0.9133,0.9135,0.9128,0.913,0.913,0.9135,0.9139,0.9142,0.9149,0.9146,0.9149,0.9145,0.9158,0.9145,0.9148,0.9145,0.9145,0.9146,0.916,0.9161,0.9161,0.9161,0,0.9151,0.9148,0.9151,0.9154,0.9157,0.9158,0.9159,0.9162,0.9155,0.9158,0.9162,0.9165,0.9169,0.9173,0.9175,0.9174,0.9167,0.9165,0.9168,0.917,0.9172,0.9172,0.9132,0.9164,0.9164,0.9164,0.9164,0.9164,0.9172,0.9178,0.9177,0.9181,0.9181,0.9183,0.9187,0.9185,0.9188,0.9191,0.9187,0.9193,0.9193,0.9195,0.9195,0.92,0.9194,0.9198,0.9199,0.92,0.9202,0.9172,0.92,0.92,0.92,0.92,0.92,0,0.92,0.9199,0.9203,0.9205,0.9209,0.9202,0.9203,0.9206,0.9212,0.9212,0.9215,0.9221,0.9225,0.9222,0.9226,0.923,0.9227,0.9231,0.9231,0.9231,0.9206,0.9204,0.9234,0.9234,0.9234,0.9234,0.9234,0.9234,0.9215,0.9224,0.9221,0.923,0.923,0.9236,0.9237,0.9238,0.9239,0.9246,0.9249,0.9247,0.9247,0.925,0.9254,0.9253,0.9255,0.9261,0.9259,0.9236,0.9232,0.9229,0.9227,0.9261,0.9261,0.9283,0.9283,0.9283]},{"header":{"parameterUnit":"m.s-1","parameterCategory":1,"la1":30.2991,"la2":30.254,"lo1":-89.0895,"lo2":-89.0444,"dy":0.0017,"dx":0.0017,"nx":28,"ny":28,"refTime":"2026-02-15T09:00:00:Z","depth":0,"parameterNumber":3,"parameterNumberName":"V-component_of_WINDS"},"data":[0,0,0,0,0,0,0,0,0,0,0,0,0,0,0,0,0,0,0,0,0,0,0,0,0,0,0,0,0,0,0,0,0,0,0,0,0,0,0,0,0,0,0,0,0,0,0,0,0,0,0,0,0,0,0,0,0,0,-4.9922,-4.9924,0,-5.0065,-5.0067,-5.0068,-5.0051,-5.0049,-5.0047,-5.0045,-5.0187,-5.0193,-5.0199,0,0,0,0,0,0,0,0,0,0,0,0,0,-4.9633,-4.9639,-4.9922,-4.9924,-4.9926,-5.0065,-5.0067,-5.0069,-5.0052,-5.0049,-5.0046,-5.0044,-5.0185,-5.0192,-5.0199,0,0,0,0,0,0,0,0,0,0,0,0,0,-4.9766,-4.9641,-4.9922,-4.9934,-4.9937,-5.0064,-5.0067,-5.0069,-5.0052,-5.0049,-5.0046,-5.0042,-5.0183,-5.0192,-5.02,-5.0324,0,0,-5.0228,-5.0231,0,0,0,0,0,0,0,0,-4.9758,-4.9776,-4.9931,-4.9934,-4.9937,-5.0037,-5.0017,-5.0154,-5.0053,-5.0008,-5.0045,-5.0041,-5.014,-5.0152,-5.0186,-5.033,-5.0337,-5.0228,-5.0234,-5.0238,-5.024,0,0,0,0,0,0,0,-4.9749,-4.977,-4.9979,-4.9933,-4.9937,-4.9932,-4.9947,-5.0043,-5.0091,-5.0012,-5.0011,-5.0029,-5.0141,-5.0178,-5.0189,-5.0339,-5.0228,-5.0236,-5.0241,-5.0245,-5.0594,-5.0597,0,0,0,0,0,0,-4.9737,-4.9763,-4.9974,-4.9983,-4.9837,-4.994,-4.9957,-5.0008,-5.009,-5.01,-5.0031,-5.0027,-5.0164,-5.0179,-5.0194,-5.0346,-5.0237,-5.0246,-5.0251,-5.059,-5.0594,-5.0599,0,0,0,0,0,0,-4.9731,-4.9756,-4.9968,-4.9873,-4.9899,-4.9949,-5.0007,-5.0013,-5.005,-5.0105,-5.0113,-5.006,-5.0162,-5.0182,-5.0293,-5.0351,-5.025,-5.0258,-5.0585,-5.0591,-5.0597,-5.0649,0,0,0,0,0,0,-4.9723,-4.9754,-4.9802,-4.9874,-4.9905,-5.0065,-5.001,-5.0018,-5.0066,-5.0062,-5.0134,-5.0143,-5.0161,-5.0279,-5.0301,-5.0361,-5.0265,-5.058,-5.0588,-5.0595,-5.0642,-5.0656,-5.0668,0,0,0,0,0,-4.9713,-4.981,-4.9804,-4.983,-4.9965,-5.0068,-5.0086,-5.0105,-5.007,-5.0119,-5.0155,-5.0141,-5.0341,-5.0291,-5.0315,-5.0379,-5.0576,-5.0586,-5.0594,-5.0637,-5.0653,-5.0667,0,0,0,0,0,0,-4.9741,-4.9819,-4.9814,-4.9938,-4.9997,-5.0065,-5.0127,-5.0122,-5.0191,-5.0184,-5.0204,-5.0221,-5.0333,-5.0367,-5.031,-5.0503,-5.0454,-5.0468,-5.0478,-5.0494,-5.0506,-5.0496,-5.0272,0,0,0,0,0,-4.9762,-4.984,-4.9904,-5.0006,-5.0036,-5.0077,-5.0122,-5.0132,-5.0194,-5.0218,-5.0262,-5.0321,-5.0398,-5.0447,-5.0521,-5.0647,-5.0663,-5.0703,-5.0715,-5.0725,-5.0738,-5.0809,-5.0827,-5.0628,-5.0628,-5.0628,0,0,-4.9805,-4.9858,-4.9905,-5.0013,-5.006,-5.0141,-5.0098,-5.0183,-5.0243,-5.0231,-5.0339,-5.0373,-5.0441,-5.0561,-5.0615,-5.0592,-5.0796,-5.0737,-5.0744,-5.0751,-5.082,-5.0839,-5.0855,-5.0634,-5.0633,-5.0632,0,0,-4.9926,-4.9973,-5.0065,-5.0114,-5.0186,-5.0213,-5.0235,-5.0305,-5.0328,-5.0437,-5.043,-5.0501,-5.0631,-5.0681,-5.0723,-5.0865,-5.0855,-5.0888,-5.0954,-5.1023,-5.1039,-5.1053,-5.1105,-5.1123,-5.09,-5.09,-5.09,0,-4.9971,-5.0092,-5.0112,-5.02,-5.0248,-5.0243,-5.0337,-5.0382,-5.0474,-5.0508,-5.048,-5.0646,-5.0691,-5.0823,-5.0858,-5.0892,-5.0918,-5.088,-5.1035,-5.1049,-5.1063,-5.1113,-5.1132,-5.0903,-5.0903,-5.0902,-5.0902,0,-5.0144,-5.0228,-5.0293,-5.0385,-5.044,-5.053,-5.0564,-5.0618,-5.0624,-5.0653,-5.0765,-5.0819,-5.0904,-5.0936,-5.0942,-5.107,-5.1053,-5.1031,-5.0981,-5.1085,-5.1132,-5.1151,-5.0908,-5.0907,-5.0906,-5.0905,0,0,-5.0285,-5.0389,-5.0412,-5.0455,-5.0535,-5.0601,-5.0691,-5.0776,-5.0822,-5.0886,-5.0962,-5.1074,-5.1055,-5.1102,-5.1114,-5.1174,-5.1285,-5.1144,-5.1146,-5.117,-5.1431,-5.1449,-5.1471,-5.1279,-5.1283,-5.1286,-5.1426,0,-5.0414,-5.0576,-5.0598,-5.074,-5.0819,-5.0816,-5.0895,-5.0953,-5.0983,-5.1054,-5.1086,-5.1166,-5.1133,-5.1162,-5.1222,-5.1259,-5.1338,-5.1249,-5.1351,-5.1354,-5.1335,-5.1495,-5.1513,-5.1643,-5.1445,-5.1448,-5.145,0,-5.0586,-5.0658,-5.0809,-5.0881,-5.0915,-5.0985,-5.1066,-5.1134,-5.12,-5.1217,-5.1272,-5.1277,-5.137,-5.1317,-5.1446,-5.1386,-5.1428,-5.1453,-5.1459,-5.1469,-5.1409,-5.1511,-5.1684,-5.1704,-5.1479,-5.1477,-5.1474,0,-5.0676,-5.081,-5.0918,-5.0954,-5.104,-5.109,-5.1128,-5.1191,-5.1242,-5.1312,-5.1345,-5.1424,-5.1468,-5.1529,-5.1555,-5.1514,-5.1684,-5.1632,-5.1701,-5.1701,-5.1737,-5.1735,-5.1921,-5.1764,-5.1763,-5.1763,-5.1763,0,-5.0819,-5.0911,-5.096,-5.1026,-5.113,-5.1155,-5.1257,-5.1293,-5.135,-5.1423,-5.1424,-5.1493,-5.1523,-5.1596,-5.1617,-5.1722,-5.1741,-5.1758,-5.1763,-5.1759,-5.1757,-5.1787,-5.1779,-5.1768,-5.1767,-5.1766,-5.1765,0,-5.0936,-5.0972,-5.109,-5.1164,-5.1184,-5.1258,-5.132,-5.1385,-5.1415,-5.1508,-5.1531,-5.1579,-5.1665,-5.1697,-5.1802,-5.1816,-5.1938,-5.1934,-5.1916,-5.1918,-5.1986,-5.1979,-5.2199,-5.223,-5.2051,-5.2053,-5.2054,0,-5.1025,-5.1097,-5.1179,-5.1229,-5.127,-5.135,-5.1402,-5.1429,-5.1483,-5.1565,-5.162,-5.1707,-5.1778,-5.1917,-5.196,-5.2041,-5.204,-5.2111,-5.2052,-5.2046,-5.2042,-5.2038,-5.2046,-5.2122,-5.2124,-5.2126,-5.2127,0,-5.118,-5.1195,-5.1271,-5.1354,-5.1417,-5.1483,-5.1547,-5.1588,-5.1625,-5.1685,-5.1775,-5.1831,-5.1939,-5.2026,-5.2109,-5.2147,-5.2144,-5.2145,-5.2166,-5.2163,-5.215,-5.2159,-5.1948,-5.214,-5.2139,-5.2138,-5.2137,-5.2137,-5.1287,-5.1351,-5.142,-5.1505,-5.1556,-5.1617,-5.1682,-5.1722,-5.1798,-5.1889,-5.19,-5.1997,-5.2063,-5.2175,-5.2217,-5.2293,-5.2274,-5.2303,-5.2311,-5.2318,-5.2324,-5.2138,-5.2308,-5.2308,-5.2307,-5.2307,-5.2307,0,-5.1443,-5.1487,-5.1565,-5.1656,-5.1724,-5.1716,-5.1787,-5.1844,-5.1929,-5.1992,-5.2062,-5.2166,-5.2251,-5.2302,-5.2386,-5.2438,-5.2438,-5.2459,-5.2456,-5.2465,-5.2335,-5.231,-5.2457,-5.2457,-5.2457,-5.2457,-5.2457,-5.2457,-5.1532,-5.1641,-5.1665,-5.18,-5.1843,-5.194,-5.1981,-5.2037,-5.2087,-5.2204,-5.2275,-5.2308,-5.2367,-5.2456,-5.2533,-5.2546,-5.2578,-5.26,-5.2612,-5.2489,-5.2474,-5.2459,-5.2435,-5.2607,-5.2607,-5.2735,-5.2736,-5.2737]}]]